Location: *
(48.8667°N, 2.3331°E)
Time: 09:02:03
(UTC+00:00)

Cosmos 2061 Rocket - Pass Details

Date: 21 August 2020
Orbit: 966 x 1012 km, 82.9° (Epoch: 23 September)

Event Time Altitude Azimuth Distance (km) Brightness Sun altitude
Exits shadow 20:14:52 16° 141° (SE) 2,324 5.4 -12.6°
Maximum altitude 20:19:06 33° 86° (E) 1,558 4.7 -13.2°
Drops below altitude 10° 20:24:33 10° 25° (NNE) 2,723 6.5 -13.9°
Sets 20:27:18 0° 16° (NNE) 3,679 7.3 -14.3°
